Location: Unspecified
(0.0000°N, 0.0000°E)
Time: 00:54:29
(UTC+00:00)

S-56A Canister/Altair - Pass Details

Date: 21 April 2019
Orbit: 632 x 2500 km, 38.9° (Epoch: 15 July)

Event Time Altitude Azimuth Distance (km) Brightness Sun altitude
Rises 05:06:30 0° 202° (SSW) 4,755 11.2 -12.8°
Reaches altitude 10° 05:10:14 10° 188° (S) 4,063 11.0 -11.9°
Maximum altitude 05:18:58 25° 138° (SE) 3,561 11.3 -9.8°
Drops below altitude 10° 05:29:35 10° 89° (E) 5,058 13.3 -7.2°
Sets 05:34:54 0° 78° (ENE) 6,161 15.1 -5.9°
